カタログに戻る

COSMOS 2251 DEB

運用中LEO
NORAD 35475·DEBRIS·🇷🇺 Russia

打ち上げ Jun 16, 1993 から Plesetsk Cosmodrome

Loading…

次のパス (今後24時間)

TLE

最新Source: Space-Track

元期: Sep 13, 2026, 14:12 UTC

1 35475U 93036ALV 26256.59228663  .00005741  00000-0  85665-3 0  9997
2 35475  74.0231 349.9159 0020599 353.3368   6.7529 14.74902375696630

AllMySatでCOSMOS 2251 DEBをリアルタイム追跡

Download on the App Store